Погода в Толмачеве

Россия / Брянская область     53˚15′10″N   34˚16′10″E
темп.,
°C
ветер,
м/с
пор.,
м/с
влажн.,
%
обл.,
%
осадки,
мм/ч
давл.,
гПа
погр.,
м
16 января, сб
сб1600:00−15˚сз3695100 0.3 1009193
03:00−15˚сз369698 0.4 1009228
06:00−16˚сз469696 0.3 1009247
09:00−17˚сз369696 0.5 1010203
12:00−16˚зсз359487 0.1 1011262
15:00−16˚зсз479393 0.1 1012347
18:00−18˚з479699 0.1 1012245
21:00−19˚зсз489599 0.1 1013277
17 января, вс
вс1700:00−18˚зсз4795100 0.1 1014323
03:00−18˚зсз3696100 0.3 1014300
06:00−17˚зсз3696100 0.4 1014316
09:00−17˚зсз3595100 0.5 1016164
12:00−16˚ссз3490100 0.0 1016392
15:00−15˚с2389100 0.0 1017429
18:00−18˚ссв2295100 0.0 101824
21:00−19˚ссв3595100 0.0 1018155
18 января, пн
пн1800:00−20˚св2296100 0.0 101981
03:00−22˚ссв229699 0.0 102043
06:00−23˚св2297100 0.0 102034
09:00−22˚св2297100 0.0 102152
12:00−19˚св1291100 0.0 1021258
15:00−18˚с2290100 0.1 1020304
18:00−19˚св1195100 0.0 102023
21:00−18˚ссв1195100 0.1 102052
19 января, вт
вт1900:00−19˚с1194100 0.0 102034
03:00−20˚ссз1294100 0.0 102026
06:00−20˚сз119499 0.0 102021
09:00−19˚зсз119398 0.0 102130
12:00−16˚сз2389100 0.0 1021232
15:00−14˚зсз2391100 0.0 1020257
18:00−17˚сз2395100 0.0 102225
21:00−18˚зсз229786 0.0 102320
20 января, ср
ср2000:00−18˚зсз129857 0.0 102420
03:00−19˚зсз129855 0.0 102520
06:00−19˚з129852 0.0 102520
09:00−19˚юз119953 0.0 102620
12:00−14˚ююз239216 0.0 1027172
15:00−12˚ююз249346 0.0 1026248
18:00−14˚ю349629 0.0 102662
21:00−15˚ю489641 0.0 1026162